This is the latest recevied weather packets stored in our database for station/object WW3TRG. If no packets are shown the sender has not sent any weather packets the latest 10 day(s).
| Time | Temp. | Humidity | Pressure | Rain* | Wind** | Luminosity | Snow |
|---|---|---|---|---|---|---|---|
| 1777576788 | 15° C | 67% | 1006.6 hPa | 0 mm | - | 170 W/m² | - |
| 1777576487 | 15° C | 66% | 1006.8 hPa | 0 mm | - | 161 W/m² | - |
| 1777576184 | 15° C | 70% | 1006.6 hPa | 0 mm | - | 149 W/m² | - |
| 1777575879 | 15° C | 69% | 1006.9 hPa | 0 mm | - | 144 W/m² | - |
| 1777575576 | 15° C | 69% | 1006.9 hPa | 0 mm | - | 165 W/m² | - |
| 1777575272 | 14.44° C | 69% | 1006.5 hPa | 0 mm | - | 188 W/m² | - |
| 1777574968 | 15° C | 70% | 1006.8 hPa | 0 mm | - | 198 W/m² | - |
| 1777574664 | 15° C | 70% | 1006.8 hPa | 0 mm | - | 230 W/m² | - |
| 1777574361 | 14.44° C | 70% | 1007 hPa | 0 mm | - | 180 W/m² | - |
| 1777574056 | 15° C | 72% | 1007 hPa | 0 mm | - | 186 W/m² | - |
| 1777573751 | 14.44° C | 72% | 1006.9 hPa | 0 mm | - | 179 W/m² | - |
| 1777573448 | 14.44° C | 73% | 1006.8 hPa | 0 mm | - | 213 W/m² | - |
| 1777573143 | 14.44° C | 74% | 1006.8 hPa | 0 mm | - | 250 W/m² | - |
| 1777572840 | 13.89° C | 74% | 1006.9 hPa | 0 mm | - | 120 W/m² | - |
| 1777572536 | 14.44° C | 77% | 1007.3 hPa | 0 mm | - | 86 W/m² | - |
| 1777572231 | 15° C | 75% | 1006.9 hPa | 0 mm | - | 196 W/m² | - |
| 1777571927 | 13.89° C | 75% | 1007 hPa | 0 mm | - | 236 W/m² | - |
| 1777571622 | 13.89° C | 76% | 1007 hPa | 0 mm | - | 144 W/m² | - |
| 1777571320 | 13.89° C | 77% | 1007.1 hPa | 0 mm | - | 73 W/m² | - |
| 1777571015 | 13.89° C | 75% | 1007.1 hPa | 0 mm | - | 106 W/m² | - |
| 1777570712 | 13.89° C | 75% | 1007.1 hPa | 0 mm | - | 185 W/m² | - |
| 1777570409 | 14.44° C | 75% | 1006.9 hPa | 0 mm | - | 246 W/m² | - |
| 1777570104 | 13.89° C | 74% | 1007.1 hPa | 0 mm | - | 295 W/m² | - |
| 1777569801 | 14.44° C | 76% | 1007.1 hPa | 0 mm | - | 286 W/m² | - |
| 1777569496 | 13.89° C | 75% | 1007.2 hPa | 0 mm | - | 309 W/m² | - |
* Rain latest hour (hover to see other rain measurements)
** Current wind speed in m/s (hover to see current wind gust speed)